Regional Weather Roundup
Issued by NWS

Home | Current Version | Previous Version | Text Only | Print | Product List | Glossary On
Versions: 1 2 3 4 5 6 7 8 9 10 11 12 13 14 15 16 17 18 19 20 21 22 23 24 25 26 27 28
000
ASPQ40 PGUM 142012
RWRPQ
WEATHER ROUNDUP FOR THE MARIANAS AND MICRONESIA
NATIONAL WEATHER SERVICE TIYAN GU
600 AM CHST FRI DEC 15 2017

GUZ001>004-142100-
MARIANA ISLANDS-

CITY           SKY/WX    TMP DP  RH WIND       PRES   REMARKS
GUAM AIRPORT   PTCLDY    81  79  94 E6        29.81R
ANDERSEN AFB   PTCLDY    79  75  89 E9        29.81R
ROTA AIRPORT   LGT RAIN  79  75  89 E2        29.81
TINIAN AP      PTCLDY    79  77  94 E8        29.79
SAIPAN AP      MOCLDY    79  77  94 E7        29.80R

$$

PMZ161-142100-
REPUBLIC OF PALAU-

CITY           SKY/WX    TMP DP  RH WIND       PRES   REMARKS
KOROR AP       CLOUDY    82  75  78 SW9       29.71S
KOROR WSO      MOCLDY    84  75  74 SW14      29.72S HX  92

$$

PMZ171>174-142100-
FEDERATED STATES OF MICRONESIA-

CITY           SKY/WX    TMP DP  RH WIND       PRES   REMARKS
YAP AIRPORT    MOCLDY    77  75  94 VRB6      29.75R
CHUUK AP       CLOUDY    82  77  83 NE12      29.71R HX  91
POHNPEI AP     CLOUDY    79  77  94 SE5       29.76R
POHNPEI WSO    CLOUDY    77  75  94 SE3       29.80R
KOSRAE AP      NOT AVBL

$$

PMZ181-142100-
REPUBLIC OF THE MARSHALL ISLANDS-

CITY           SKY/WX    TMP DP  RH WIND       PRES   REMARKS
KWAJALEIN AP   MOSUNNY   81  79  94 NE16      29.81R
MAJURO AP      PTSUNNY   82  77  83 NE6       29.80  HX  91
MAJURO WSO     PTSUNNY   82  75  78 E6        29.78R

$$





USA.gov is the U.S. government's official web portal to all federal, state and local government web resources and services.